Canadian, TX

1:10 AM CST on November 14, 2019 (GMT -0600)
Hemphill County

Weather History for KHHF - June, 2019

Change the Weather History Date:

Wednesday, June 5, 2019

  Actual Average (KPPA) Record (KPPA)
Temperature  
Mean Temperature 73 °F -  
Max Temperature 84 °F 81 °F 102 °F (2018)
Min Temperature 62 °F 56 °F 45 °F (1970)
Cooling Degree Days 8    
Growing Degree Days 23 (Base 50)    
Moisture  
Dew Point 61 °F    
Average Humidity 69    
Maximum Humidity 97    
Minimum Humidity 36    
Precipitation  
Precipitation 0.00 in - - ()
Sea Level Pressure  
Sea Level Pressure 29.93 in    
Wind  
Wind Speed 7 mph (WNW)    
Max Wind Speed 21 mph    
Max Gust Speed 30 mph    
Visibility 10 miles    
Events Thunderstorm    
Averages and records for this station are not official NWS values.
T = Trace of Precipitation, MM = Missing Value Source: NWS Daily Summary

Daily Weather History Graph

Daily Weather History Graph

Search for Another Location

Airport or City:

Astronomy

Jun. 05, 2019 Rise Set
Actual Time 6:25 AM CDT 8:55 PM CDT
Civil Twilight 5:55 AM CDT 9:24 PM CDT
Nautical Twilight 5:18 AM CDT 10:01 PM CDT
Astronomical Twilight 4:38 AM CDT 10:42 PM CDT
Moon 8:32 AM CDT (6/5) 11:23 PM CDT (6/5)
Length of Visible Light 15h 29m
Length of Day
14h 29m
Waxing Crescent, 7% of the Moon is Illuminated
Jun 5
Waxing Crescent
Jun 10
First Quarter
Jun 17
Full
Jun 25
Last Quarter
Jul 2
New

Hourly Weather History & Observations

Time (CDT) Temp. Heat Index Dew Point Humidity Pressure Visibility Wind Dir Wind Speed Gust Speed Precip Events Conditions
12:15 AM 75.2 °F - 69.4 °F 82% 29.94 in 10.0 mi SSW 9.2 mph - N/A   Clear
12:35 AM 75.2 °F - 69.3 °F 82% 29.94 in 10.0 mi SSW 11.5 mph - N/A   Clear
12:55 AM 73.6 °F - 68.5 °F 84% 29.94 in 10.0 mi SSW 13.8 mph 19.6 mph N/A   Clear
1:15 AM 73.0 °F - 68.2 °F 85% 29.96 in 10.0 mi WSW 10.4 mph 16.1 mph N/A   Scattered Clouds
1:35 AM 73.8 °F - 68.4 °F 83% 29.97 in 10.0 mi WSW 10.4 mph - N/A   Mostly Cloudy
1:55 AM 72.3 °F - 58.6 °F 62% 29.99 in 10.0 mi WNW 20.7 mph 27.6 mph N/A Thunderstorm Overcast
2:15 AM 68.9 °F - 59.9 °F 73% 29.98 in 10.0 mi WNW 12.7 mph 19.6 mph N/A Thunderstorm Overcast
2:35 AM 67.3 °F - 60.6 °F 79% 29.96 in 10.0 mi NW 9.2 mph 18.4 mph N/A   Mostly Cloudy
2:55 AM 66.2 °F - 60.6 °F 82% 29.96 in 10.0 mi WSW 4.6 mph - N/A   Clear
3:15 AM 66.7 °F - 59.9 °F 79% 29.95 in 10.0 mi West 5.8 mph - N/A   Clear
3:35 AM 66.2 °F - 61.2 °F 84% 29.95 in 10.0 mi NNE 5.8 mph - N/A   Scattered Clouds
3:55 AM 64.9 °F - 61.5 °F 89% 29.95 in 10.0 mi Calm Calm - N/A   Clear
4:15 AM 64.2 °F - 61.7 °F 91% 29.95 in 10.0 mi Calm Calm - N/A   Clear
4:35 AM 64.6 °F - 61.3 °F 89% 29.95 in 10.0 mi Calm Calm - N/A   Scattered Clouds
4:55 AM 63.7 °F - 61.7 °F 93% 29.94 in 10.0 mi South 3.5 mph - N/A   Clear
5:15 AM 63.5 °F - 61.7 °F 94% 29.92 in 10.0 mi SSW 6.9 mph - N/A   Clear
5:35 AM 64.0 °F - 61.0 °F 90% 29.91 in 10.0 mi SW 6.9 mph - N/A   Clear
5:55 AM 63.3 °F - 61.7 °F 94% 29.91 in 10.0 mi WSW 6.9 mph - N/A   Clear
6:15 AM 62.6 °F - 61.3 °F 96% 29.91 in 10.0 mi SSW 3.5 mph - N/A   Clear
6:35 AM 62.6 °F - 61.7 °F 97% 29.92 in 10.0 mi SW 3.5 mph - N/A   Clear
6:55 AM 63.0 °F - 61.7 °F 96% 29.93 in 10.0 mi WSW 5.8 mph - N/A   Clear
7:15 AM 63.5 °F - 61.2 °F 92% 29.95 in 10.0 mi WSW 9.2 mph - N/A   Clear
7:35 AM 64.4 °F - 61.0 °F 89% 29.95 in 10.0 mi Calm Calm - N/A   Clear
7:55 AM 65.3 °F - 61.5 °F 88% 29.95 in 10.0 mi Calm Calm - N/A   Mostly Cloudy
8:15 AM 67.5 °F - 61.0 °F 80% 29.95 in 10.0 mi NNW 3.5 mph - N/A   Scattered Clouds
8:35 AM 67.6 °F - 61.3 °F 80% 29.94 in 10.0 mi NNW 6.9 mph - N/A   Clear
8:55 AM 68.2 °F - 62.4 °F 82% 29.95 in 10.0 mi North 5.8 mph - N/A   Clear
9:15 AM 69.6 °F - 64.2 °F 83% 29.95 in 10.0 mi North 5.8 mph - N/A   Clear
9:35 AM 71.8 °F - 63.3 °F 75% 29.95 in 10.0 mi North 5.8 mph - N/A   Clear
9:55 AM 72.5 °F - 63.1 °F 72% 29.95 in 10.0 mi NE 3.5 mph - N/A   Clear
10:15 AM 73.4 °F - 63.1 °F 70% 29.95 in 10.0 mi ENE 3.5 mph - N/A   Clear
10:35 AM 74.8 °F - 63.3 °F 67% 29.95 in 10.0 mi Calm Calm - N/A   Clear
10:55 AM 75.2 °F - 61.2 °F 62% 29.95 in 10.0 mi North 5.8 mph - N/A   Clear
11:15 AM 76.1 °F - 60.8 °F 59% 29.96 in 10.0 mi North 4.6 mph - N/A   Clear
11:35 AM 76.5 °F - 60.8 °F 58% 29.96 in 10.0 mi WNW 5.8 mph - N/A   Clear
11:55 AM 76.5 °F - 61.3 °F 59% 29.96 in 10.0 mi WNW 4.6 mph - N/A   Scattered Clouds
12:15 PM 77.0 °F - 60.8 °F 57% 29.96 in 10.0 mi West 4.6 mph - N/A   Scattered Clouds
12:35 PM 77.5 °F - 61.7 °F 58% 29.96 in 10.0 mi West 4.6 mph - N/A   Mostly Cloudy
12:55 PM 78.6 °F - 63.5 °F 60% 29.96 in 10.0 mi WNW 6.9 mph - N/A   Mostly Cloudy
1:15 PM 80.1 °F 81.8 °F 64.4 °F 59% 29.96 in 10.0 mi NW 6.9 mph - N/A   Mostly Cloudy
1:35 PM 77.2 °F - 64.0 °F 64% 29.96 in 10.0 mi WNW 8.1 mph - N/A   Mostly Cloudy
1:55 PM 75.7 °F - 63.9 °F 66% 29.96 in 10.0 mi WNW 9.2 mph - N/A   Scattered Clouds
2:15 PM 75.9 °F - 63.5 °F 65% 29.95 in 10.0 mi WNW 6.9 mph - N/A   Mostly Cloudy
2:35 PM 77.5 °F - 63.1 °F 61% 29.94 in 10.0 mi WNW 4.6 mph - N/A   Mostly Cloudy
2:55 PM 82.0 °F 83.1 °F 63.0 °F 52% 29.92 in 10.0 mi NW 11.5 mph - N/A   Clear
3:15 PM 80.6 °F 81.2 °F 59.9 °F 49% 29.92 in 10.0 mi NNW 9.2 mph - N/A   Clear
3:35 PM 82.0 °F 81.8 °F 57.4 °F 43% 29.91 in 10.0 mi NNW 4.6 mph - N/A   Scattered Clouds
3:55 PM 83.3 °F 83.4 °F 59.7 °F 45% 29.90 in 10.0 mi NNW 6.9 mph - N/A   Scattered Clouds
4:15 PM 83.3 °F 82.8 °F 57.0 °F 41% 29.89 in 10.0 mi North 6.9 mph - N/A   Clear
4:35 PM 83.7 °F 83.0 °F 57.2 °F 40% 29.89 in 10.0 mi NNW 8.1 mph - N/A   Clear
4:55 PM 83.8 °F 82.6 °F 54.3 °F 36% 29.88 in 10.0 mi North 4.6 mph - N/A   Clear
5:15 PM 84.2 °F 83.0 °F 55.4 °F 37% 29.87 in 10.0 mi North 4.6 mph - N/A   Clear
5:35 PM 84.2 °F 83.2 °F 56.3 °F 38% 29.86 in 10.0 mi North 5.8 mph - N/A   Clear
5:55 PM 84.0 °F 83.2 °F 56.7 °F 39% 29.86 in 10.0 mi NNW 4.6 mph - N/A   Clear
6:15 PM 84.2 °F 83.3 °F 57.0 °F 39% 29.85 in 10.0 mi NNE 8.1 mph - N/A   Clear
6:35 PM 83.7 °F 82.8 °F 56.1 °F 39% 29.85 in 10.0 mi NE 6.9 mph - N/A   Clear
6:55 PM 81.7 °F 81.2 °F 55.2 °F 40% 29.86 in 10.0 mi NNE 5.8 mph - N/A   Clear
7:15 PM 79.5 °F - 60.8 °F 53% 29.85 in 10.0 mi North 4.6 mph - N/A   Clear
7:35 PM 79.0 °F - 61.3 °F 55% 29.86 in 10.0 mi NNW 3.5 mph - N/A   Clear
7:55 PM 78.1 °F - 62.4 °F 58% 29.86 in 10.0 mi Calm Calm - N/A   Clear
8:15 PM 77.7 °F - 62.6 °F 60% 29.88 in 10.0 mi Calm Calm - N/A   Clear
8:35 PM 75.2 °F - 63.5 °F 67% 29.88 in 10.0 mi WNW 3.5 mph - N/A   Scattered Clouds
8:55 PM 73.2 °F - 65.7 °F 77% 29.89 in 10.0 mi West 12.7 mph 18.4 mph N/A   Mostly Cloudy
9:15 PM 71.1 °F - 56.5 °F 60% 29.90 in 10.0 mi West 16.1 mph 24.2 mph N/A   Overcast
9:35 PM 70.2 °F - 55.6 °F 60% 29.91 in 10.0 mi West 18.4 mph 29.9 mph N/A   Mostly Cloudy
9:55 PM 67.5 °F - 56.7 °F 68% 29.91 in 10.0 mi WSW 9.2 mph - N/A   Scattered Clouds
10:15 PM 65.1 °F - 57.6 °F 76% 29.91 in 10.0 mi WSW 6.9 mph - N/A   Clear
10:35 PM 65.3 °F - 57.2 °F 75% 29.91 in 10.0 mi NW 6.9 mph - N/A   Clear
10:55 PM 64.9 °F - 57.2 °F 76% 29.91 in 10.0 mi West 5.8 mph - N/A   Clear
11:15 PM 64.0 °F - 57.9 °F 80% 29.92 in 10.0 mi WSW 5.8 mph - N/A   Clear
11:35 PM 64.4 °F - 58.3 °F 80% 29.91 in 10.0 mi West 5.8 mph - N/A   Clear
11:55 PM 63.9 °F - 58.5 °F 83% 29.91 in 10.0 mi WSW 4.6 mph - N/A   Clear